This demonstration page uses our WeatherBlox Daily Observations layout. Learn more.

Left ArrowRight Arrow

53.62937, 11.41316

Hourly Observations for April 16, 2015

Temp ( °F °C ) Dew Point ( °F °C ) Humidity (%) Winds ( mph kmh ) Pressure ( in mb ) Visibility ( mi km ) Precip ( " mm )
6:20 am 06:20 Mostly Sunny 37 3 34 1 87 87 W 6 9 29.91 1013 7 11 N/A
6:50 am 06:50 Mostly Sunny 37 3 34 1 87 87 W 5 7 29.91 1013 7 11 N/A
7:20 am 07:20 Mostly Sunny 37 3 36 2 93 93 W 8 13 29.91 1013 7 11 N/A
7:50 am 07:50 Mostly Sunny 41 5 37 3 87 87 W 8 13 29.94 1014 7 11 N/A
8:20 am 08:20 Mostly Sunny 43 6 37 3 81 81 W 10 17 29.94 1014 30 48 N/A
8:50 am 08:50 Partly Cloudy 43 6 37 3 81 81 W 12 19 29.94 1014 30 48 N/A
9:20 am 09:20 Mostly Cloudy 45 7 37 3 76 76 WNW 13 20 29.94 1014 30 48 N/A
9:50 am 09:50 Mostly Cloudy 45 7 36 2 71 71 WNW 13 20 29.94 1014 30 48 N/A
10:20 am 10:20 Mostly Cloudy 46 8 36 2 66 66 WNW 13 20 29.94 1014 30 48 N/A
10:50 am 10:50 Mostly Cloudy 48 9 34 1 58 58 WNW 12 19 29.97 1015 30 48 N/A
11:20 am 11:20 Partly Cloudy 48 9 34 1 58 58 WNW 12 19 29.97 1015 30 48 N/A
11:50 am 11:50 Mostly Cloudy 50 10 32 0 50 50 W 12 19 29.97 1015 30 48 N/A
12:20 pm 12:20 Partly Cloudy 52 11 36 2 54 54 W 12 19 29.97 1015 30 48 N/A
12:50 pm 12:50 Mostly Cloudy 52 11 34 1 50 50 W 12 19 29.97 1015 30 48 N/A
1:20 pm 13:20 Partly Cloudy 54 12 36 2 51 51 WNW 13 20 29.94 1014 30 48 N/A
1:50 pm 13:50 Partly Cloudy 54 12 34 1 47 47 W 16 26 29.94 1014 30 48 N/A
2:20 pm 14:20 Partly Cloudy 52 11 32 0 47 47 W 14 22 29.94 1014 30 48 N/A
2:50 pm 14:50 Mostly Sunny 54 12 32 0 44 44 W 15 24 29.94 1014 7 11 N/A
3:20 pm 15:20 Mostly Sunny 54 12 32 0 44 44 WNW 15 24 29.94 1014 7 11 N/A
3:50 pm 15:50 Mostly Sunny 54 12 32 0 44 44 W 16 26 29.94 1014 7 11 N/A
4:20 pm 16:20 Mostly Sunny 54 12 32 0 44 44 W 16 26 29.94 1014 7 11 N/A
4:50 pm 16:50 Mostly Sunny 52 11 32 0 47 47 WNW 14 22 29.94 1014 7 11 N/A
5:20 pm 17:20 Mostly Sunny 52 11 34 1 50 50 WNW 13 20 29.94 1014 7 11 N/A
5:50 pm 17:50 Mostly Sunny 52 11 32 0 47 47 WNW 15 24 29.91 1013 7 11 N/A
6:20 pm 18:20 Mostly Sunny 50 10 34 1 54 54 W 14 22 29.94 1014 7 11 N/A
6:50 pm 18:50 Mostly Sunny 52 11 34 1 50 50 WNW 10 17 29.91 1013 7 11 N/A

Powered by AerisWeather